Location: Limerick
(52.6800°N, 8.6400°W)
Time: 04:13:46
(UTC+01:00)

Sapphire - Visible Passes

Search period start: 29 August 2014 00:00
Search period end: 08 September 2014 00:00
Orbit: 787 x 796 km, 67.1° (Epoch: 25 August)

Date Brightness Start Highest point End Pass type
(mag) Time Alt. Az. Time Alt. Az. Time Alt. Az.
29 Aug ? 00:36:35 10° NNW 00:40:54 23° NNE 00:45:12 10° ENE visible
29 Aug ? 02:20:00 10° NW 02:25:24 60° NE 02:27:18 38° ESE visible
29 Aug ? 04:03:49 10° NW 04:07:57 31° W 04:07:57 31° W visible
29 Aug ? 22:21:01 10° NW 22:24:47 19° N 22:28:33 10° NE visible
30 Aug ? 00:06:04 10° NNW 00:10:11 21° NNE 00:14:17 10° ENE visible
30 Aug ? 01:49:34 10° NW 01:54:52 49° NE 01:56:35 37° E visible
30 Aug ? 03:33:12 10° NW 03:37:15 37° W 03:37:15 37° W visible
30 Aug ? 21:50:08 10° WNW 21:54:02 20° NNW 21:57:57 10° NNE visible
30 Aug ? 23:35:31 10° NNW 23:39:27 20° NNE 23:43:23 10° ENE visible
31 Aug ? 01:19:09 10° NNW 01:24:19 41° NE 01:26:04 32° E visible
31 Aug ? 03:02:39 10° NW 03:06:45 44° W 03:06:45 44° W visible
31 Aug ? 21:19:13 10° WNW 21:23:18 21° NNW 21:27:24 10° NNE visible
31 Aug ? 23:04:55 10° NW 23:08:42 19° N 23:12:30 10° NE visible
01 Sep ? 00:48:43 10° NNW 00:53:43 35° NE 00:55:42 27° ENE visible
01 Sep ? 02:32:08 10° NW 02:36:23 52° WNW 02:36:23 52° WNW visible
01 Sep ? 22:34:15 10° NW 22:37:57 18° N 22:41:38 10° NE visible
02 Sep ? 00:18:17 10° NNW 00:23:05 30° NNE 00:25:26 22° ENE visible
02 Sep ? 02:01:40 10° NW 02:06:08 61° NW 02:06:08 61° NW visible
02 Sep ? 03:46:16 10° WNW 03:46:50 12° WNW 03:46:50 12° WNW visible
02 Sep ? 22:03:32 10° NW 22:07:11 18° N 22:10:50 10° NE visible
02 Sep ? 23:47:50 10° NNW 23:52:26 27° NNE 23:55:16 18° ENE visible
03 Sep ? 01:31:12 10° NW 01:35:58 66° NNW 01:35:58 66° NNW visible
03 Sep ? 03:15:23 10° WNW 03:16:40 15° WNW 03:16:40 15° WNW visible
03 Sep ? 21:32:45 10° NW 21:36:25 18° N 21:40:05 10° NE visible
03 Sep ? 23:17:22 10° NNW 23:21:45 24° NNE 23:25:09 14° ENE visible
04 Sep ? 01:00:46 10° NW 01:05:51 63° NNE 01:05:51 63° NNE visible
04 Sep ? 02:44:39 10° NW 02:46:34 19° WNW 02:46:34 19° WNW visible
04 Sep ? 21:01:55 10° NW 21:05:39 18° N 21:09:24 10° NE visible
04 Sep ? 22:46:52 10° NNW 22:51:03 22° NNE 22:55:05 11° ENE visible
05 Sep ? 00:30:20 10° NW 00:35:41 53° NE 00:35:48 53° NE visible
05 Sep ? 02:14:01 10° NW 02:16:30 25° WNW 02:16:30 25° WNW visible
05 Sep ? 22:16:19 10° NNW 22:20:19 20° NNE 22:24:18 10° ENE visible
05 Sep ? 23:59:55 10° NNW 00:05:07 44° NE 00:05:47 42° ENE visible
06 Sep ? 01:43:27 10° NW 01:46:30 31° WNW 01:46:30 31° WNW visible
06 Sep ? 21:45:44 10° NW 21:49:34 19° N 21:53:24 10° NE visible
06 Sep ? 23:29:29 10° NNW 23:34:32 37° NE 23:35:49 33° ENE visible
07 Sep ? 01:12:56 10° NW 01:16:32 40° WNW 01:16:32 40° WNW visible
07 Sep ? 21:15:06 10° NW 21:18:49 18° N 21:22:32 10° NE visible
07 Sep ? 22:59:03 10° NNW 23:03:55 32° NNE 23:05:52 25° ENE visible
